Weather History for KCLT - January, 2003

Change the Weather History Date:

Tuesday, January 7, 2003

  Actual Average Record
Temperature  
Mean Temperature 35 °F 40 °F  
Max Temperature 46 °F 50 °F 77 °F (1890)
Min Temperature 24 °F 29 °F 6 °F (2014)
Degree Days  
Heating Degree Days 30 25  
Month to date heating degree days 175  
Since 1 July heating degree days 1512  
Cooling Degree Days 0 0  
Month to date cooling degree days 0  
Year to date cooling degree days 0  
Moisture  
Dew Point 14 °F    
Average Humidity 46    
Maximum Humidity 75    
Minimum Humidity 20    
Precipitation  
Precipitation 0.00 in 0.12 in 1.76 in (1991)
Month to date precipitation 0.78  
Year to date precipitation 0.78  
Snow  
Snow 0.00 in 0.00 in 12.10 in (1988)
Month to date snowfall 0.3  
Since 1 July snowfall 0.7  
Snow Depth -    
Sea Level Pressure  
Sea Level Pressure 30.16 in    
Wind  
Wind Speed 6 mph (West)    
Max Wind Speed 13 mph    
Max Gust Speed 21 mph    
Visibility 10 miles    
Events      
T = Trace of Precipitation, MM = Missing Value Source: NWS Daily Summary

Daily Weather History Graph

Daily Weather History Graph

Search for Another Location

Airport or City:

Trip Planner

Search our weather history database for the weather conditions in past years. The results will help you decide how hot, cold, wet, or windy it might be!

Date:

Astronomy

Jan. 07, 2003 Rise Set
Actual Time 7:32 AM EST 5:27 PM EST
Civil Twilight 7:05 AM EST 5:55 PM EST
Nautical Twilight 6:33 AM EST 6:26 PM EST
Astronomical Twilight 6:02 AM EST 6:57 PM EST
Moon 11:00 AM EST (1/7) 10:26 PM EST (1/7)
Length of Visible Light 10h 50m
Length of Day
9h 54m
Waxing Crescent, 24% of the Moon is Illuminated
Jan 7
Waxing Crescent
Jan 10
First Quarter
Jan 18
Full
Jan 25
Last Quarter
Feb 1
New

Hourly Weather History & Observations

Time (EST) Temp. Windchill Dew Point Humidity Pressure Visibility Wind Dir Wind Speed Gust Speed Precip Events Conditions
12:51 AM 28.9 °F 22.8 °F 16.0 °F 58% 30.20 in 10.0 mi North 5.8 mph - N/A   Clear
1:51 AM 28.0 °F 22.8 °F 16.0 °F 61% 30.20 in 10.0 mi NW 4.6 mph - N/A   Clear
2:51 AM 28.9 °F 21.1 °F 15.1 °F 56% 30.22 in 10.0 mi NNW 8.1 mph - N/A   Clear
3:51 AM 26.1 °F 21.9 °F 15.1 °F 63% 30.24 in 10.0 mi NNW 3.5 mph - N/A   Clear
4:51 AM 27.0 °F 21.6 °F 14.0 °F 58% 30.24 in 10.0 mi SW 4.6 mph - N/A   Clear
5:51 AM 24.1 °F - 17.1 °F 75% 30.26 in 10.0 mi Calm Calm - N/A   Partly Cloudy
6:51 AM 26.1 °F 18.4 °F 17.1 °F 69% 30.27 in 10.0 mi WNW 6.9 mph - N/A   Scattered Clouds
7:51 AM 26.1 °F 20.5 °F 18.0 °F 71% 30.29 in 10.0 mi WNW 4.6 mph - N/A   Mostly Cloudy
8:51 AM 28.0 °F 21.7 °F 18.0 °F 66% 30.30 in 10.0 mi NW 5.8 mph - N/A   Mostly Cloudy
9:51 AM 30.9 °F 21.7 °F 17.1 °F 57% 30.30 in 10.0 mi NW 11.5 mph - N/A   Mostly Cloudy
10:51 AM 33.1 °F 23.9 °F 15.1 °F 48% 30.28 in 10.0 mi NW 12.7 mph - N/A   Mostly Cloudy
11:51 AM 37.9 °F 30.5 °F 15.1 °F 39% 30.24 in 10.0 mi NNW 11.5 mph - N/A   Mostly Cloudy
12:51 PM 42.1 °F 36.6 °F 14.0 °F 32% 30.20 in 10.0 mi NW 9.2 mph - N/A   Mostly Cloudy
1:51 PM 44.1 °F 38.1 °F 10.0 °F 25% 30.17 in 10.0 mi WNW 11.5 mph - N/A   Scattered Clouds
2:51 PM 45.0 °F 42.6 °F 7.0 °F 21% 30.13 in 10.0 mi Variable 4.6 mph - N/A   Scattered Clouds
3:51 PM 46.9 °F - 7.0 °F 20% 30.11 in 10.0 mi Variable 4.6 mph - N/A   Partly Cloudy
4:51 PM 44.1 °F 40.8 °F 10.9 °F 26% 30.09 in 10.0 mi SW 5.8 mph - N/A   Partly Cloudy
5:51 PM 41.0 °F 38.0 °F 10.9 °F 29% 30.09 in 10.0 mi SSW 4.6 mph - N/A   Partly Cloudy
6:51 PM 39.0 °F 33.4 °F 10.9 °F 32% 30.07 in 10.0 mi South 8.1 mph - N/A   Partly Cloudy
7:51 PM 39.9 °F 35.8 °F 15.1 °F 36% 30.04 in 10.0 mi SW 5.8 mph - N/A   Partly Cloudy
8:51 PM 39.0 °F 33.4 °F 17.1 °F 41% 30.00 in 10.0 mi SSW 8.1 mph - N/A   Scattered Clouds
9:51 PM 39.9 °F 35.1 °F 18.0 °F 41% 29.97 in 10.0 mi SSW 6.9 mph - N/A   Mostly Cloudy
10:51 PM 39.0 °F 32.3 °F 17.1 °F 41% 29.92 in 10.0 mi SW 10.4 mph - N/A   Scattered Clouds
11:51 PM 37.9 °F 30.9 °F 14.0 °F 38% 29.90 in 10.0 mi SW 10.4 mph 20.7 mph N/A   Scattered Clouds